Airfield :
LOGIN :

Register | Disclaimer

   EN    FR    IT 

 










Legend :    VFR   Marginal VFR   IFR   Intensive IFR   Very Intensive IFR
Visi :
Ceiling :
>= 8 km
>= 3000ft
5 to 8 km
1000 to 3000 ft
1500m to 5 km
500 to 1000 ft
800 to 1500m
200 to 500 ft
< 800m
< 200 ft
Symbols :   Thunderstorms  Fog  Heavy snow  Heavy precipitations  Wind > 20 kt
SIGMETs :     Misc.  Thunderstorms  Icing  Turbulence  Mountain Waves  Volcanic Ashes






- Airport Elevation : 479 ft
- IATA code : KEV


EFHA - Halli

CURRENT METAR :
  • 200420Z AUTO 08006KT 050V110 9999 OVC023 05/01 Q1029

EXPIRED METARs :
  • 200350Z AUTO 07005KT 9999 OVC024 05/01 Q1029
  • 200320Z AUTO 08007KT 9999 OVC026 05/01 Q1029
  • 200250Z AUTO 08006KT 9999 OVC027 05/01 Q1029
  • 200220Z AUTO 08005KT 9999 OVC026 05/01 Q1029
  • 200150Z AUTO 08003KT 9999 OVC026 05/01 Q1029

TAF TAF EFHA
Valid from the 20 at 03:00 until the 20 at 12:00 UTC


200225Z 2003/2012 08007KT 9999 BKN025



MET'MAP, your aeronautical weather chart ! - Copyright ORBIFLY December 2007 - Disclaimer

ORBIFLY MET'MAP TEAM :

Programming & Development : Alexandra Zaïnal
Concept & original design : Baudouin d'Aumeries
Assistance for programming : Marc-Olivier Méhu
Technical & hardware support : Manuel Goepfert

Contact : metmap@orbifly.com




SOURCES & CREDITS :

   NOAA